• In Latvia
  • List of Countries
  • For 7 days
  • Water Temperature
  • Satellite Maps
  • Weather Map
  • Weather Widgets
  • user-avatar
    Login

    Hourly Weather West Coon Rapids

    Today, 19 September, Wednesday

    Time Temperature Precipitation Wind Pressure Humidity
    00:00 +15°C° 0.2 mm 2 mps 738 mmHg 86%
    01:00 +15°C° 0.1 mm 2 mps 738 mmHg 87%
    02:00 +15°C° 0.1 mm 2 mps 738 mmHg 88%
    03:00 +15°C° 0.1 mm 2 mps 737 mmHg 90%
    04:00 +15°C° 0.1 mm 2 mps 738 mmHg 90%
    05:00 +15°C° 0.1 mm 2 mps 738 mmHg 91%
    06:00 +15°C° 0.1 mm 2 mps 738 mmHg 92%
    07:00 +15°C° 0.2 mm 2 mps 738 mmHg 92%
    08:00 +15°C° 0.2 mm 2 mps 738 mmHg 92%
    09:00 +14°C° 0.2 mm 3 mps 739 mmHg 92%
    10:00 +16°C° 0.2 mm 3 mps 739 mmHg 92%
    11:00 +17°C° 0.2 mm 2 mps 739 mmHg 91%
    12:00 +18°C° 0.2 mm 2 mps 738 mmHg 90%
    13:00 +18°C° 0.5 mm 3 mps 738 mmHg 90%
    14:00 +18°C° 0.5 mm 3 mps 738 mmHg 91%
    15:00 +18°C° 0.5 mm 3 mps 737 mmHg 91%
    16:00 +18°C° 0.5 mm 3 mps 737 mmHg 93%
    17:00 +18°C° 0.5 mm 4 mps 737 mmHg 94%
    18:00 +18°C° 0.5 mm 4 mps 737 mmHg 95%
    19:00 +18°C° 1.3 mm 4 mps 737 mmHg 96%
    20:00 +18°C° 1.3 mm 3 mps 737 mmHg 96%
    21:00 +18°C° 1.3 mm 3 mps 737 mmHg 96%
    22:00 +18°C° 2.1 mm 4 mps 737 mmHg 96%
    23:00 +18°C° 2.1 mm 4 mps 737 mmHg 96%

    Tomorrow, 20 September, Thursday

    Time Temperature Precipitation Wind Pressure Humidity
    00:00 +18°C° 2.1 mm 4 mps 736 mmHg 96%
    01:00 +18°C° 2.7 mm 4 mps 736 mmHg 97%
    02:00 +18°C° 2.7 mm 4 mps 735 mmHg 97%
    03:00 +18°C° 2.7 mm 4 mps 735 mmHg 97%
    04:00 +18°C° 1.1 mm 4 mps 735 mmHg 97%
    05:00 +18°C° 1.1 mm 4 mps 734 mmHg 97%
    06:00 +18°C° 1.1 mm 4 mps 734 mmHg 97%
    07:00 +19°C° 1.3 mm 4 mps 734 mmHg 96%
    08:00 +19°C° 1.3 mm 4 mps 734 mmHg 96%
    09:00 +20°C° 1.3 mm 4 mps 734 mmHg 95%
    10:00 +20°C° 2.3 mm 4 mps 733 mmHg 95%
    11:00 +20°C° 2.3 mm 4 mps 733 mmHg 95%
    12:00 +21°C° 2.3 mm 4 mps 732 mmHg 95%
    13:00 +21°C° 3.2 mm 4 mps 731 mmHg 94%
    14:00 +22°C° 3.2 mm 5 mps 729 mmHg 93%
    15:00 +22°C° 3.2 mm 6 mps 728 mmHg 92%
    16:00 +22°C° 7.2 mm 6 mps 727 mmHg 91%
    17:00 +21°C° 7.2 mm 6 mps 727 mmHg 90%
    18:00 +21°C° 7.2 mm 6 mps 726 mmHg 89%
    19:00 +20°C° 0.1 mm 5 mps 727 mmHg 90%
    20:00 +18°C° 0.1 mm 4 mps 727 mmHg 91%
    21:00 +17°C° 0.1 mm 3 mps 728 mmHg 91%
    22:00 +17°C° 0 mm 3 mps 728 mmHg 92%
    23:00 +17°C° 0 mm 3 mps 729 mmHg 92%

    Day after tomorrow, 21 September, Friday

    Time Temperature Precipitation Wind Pressure Humidity
    00:00 +18°C° 0 mm 4 mps 729 mmHg 93%
    01:00 +16°C° 0 mm 5 mps 729 mmHg 91%
    02:00 +15°C° 0 mm 6 mps 730 mmHg 90%
    03:00 +15°C° 0 mm 7 mps 730 mmHg 88%
    04:00 +14°C° 0 mm 7 mps 731 mmHg 87%
    05:00 +12°C° 0 mm 7 mps 732 mmHg 86%
    06:00 +11°C° 0 mm 8 mps 733 mmHg 85%
    07:00 +11°C° 0 mm 8 mps 735 mmHg 82%
    08:00 +11°C° 0 mm 8 mps 736 mmHg 80%
    09:00 +10°C° 0 mm 8 mps 737 mmHg 78%
    10:00 +10°C° 0 mm 7 mps 739 mmHg 75%
    11:00 +10°C° 0 mm 7 mps 740 mmHg 71%
    12:00 +10°C° 0 mm 7 mps 741 mmHg 68%
    13:00 +10°C° 0 mm 6 mps 741 mmHg 67%
    14:00 +11°C° 0 mm 6 mps 742 mmHg 65%
    15:00 +12°C° 0 mm 5 mps 743 mmHg 64%
    16:00 +12°C° 0 mm 4 mps 743 mmHg 67%
    17:00 +11°C° 0 mm 3 mps 744 mmHg 69%
    18:00 +12°C° 0 mm 1 mps 744 mmHg 72%
    19:00 +11°C° 0 mm 1 mps 745 mmHg 74%
    20:00 +10°C° 0 mm 1 mps 745 mmHg 76%
    21:00 +9°C° 0 mm 0 mps 746 mmHg 78%
    22:00 +9°C° 0 mm 1 mps 746 mmHg 79%
    23:00 +9°C° 0 mm 1 mps 746 mmHg 80%

    22 September, Saturday

    Time Temperature Precipitation Wind Pressure Humidity
    00:00 +9°C° 0 mm 1 mps 746 mmHg 81%
    01:00 +7°C° 0 mm 2 mps 746 mmHg 82%
    02:00 +7°C° 0 mm 2 mps 745 mmHg 83%
    03:00 +7°C° 0 mm 2 mps 745 mmHg 85%
    04:00 +7°C° 0 mm 2 mps 745 mmHg 85%
    05:00 +7°C° 0 mm 3 mps 745 mmHg 86%
    06:00 +5°C° 0 mm 3 mps 745 mmHg 87%
    07:00 +7°C° 0 mm 4 mps 744 mmHg 81%
    08:00 +9°C° 0 mm 5 mps 744 mmHg 75%
    09:00 +10°C° 0 mm 5 mps 744 mmHg 69%
    10:00 +12°C° 0 mm 5 mps 743 mmHg 69%
    11:00 +13°C° 0 mm 5 mps 743 mmHg 69%
    12:00 +13°C° 0 mm 4 mps 742 mmHg 69%
    13:00 +15°C° 0 mm 4 mps 742 mmHg 67%
    14:00 +17°C° 0 mm 4 mps 741 mmHg 66%
    15:00 +18°C° 0 mm 4 mps 741 mmHg 64%
    16:00 +18°C° 0 mm 3 mps 740 mmHg 69%
    17:00 +17°C° 0 mm 2 mps 740 mmHg 75%
    18:00 +16°C° 0 mm 2 mps 740 mmHg 80%
    19:00 +15°C° 0 mm 2 mps 740 mmHg 83%
    20:00 +15°C° 0 mm 2 mps 740 mmHg 85%
    21:00 +14°C° 0 mm 2 mps 741 mmHg 88%
    22:00 +14°C° 0 mm 2 mps 741 mmHg 88%
    23:00 +14°C° 0 mm 2 mps 740 mmHg 89%

    23 September, Sunday

    Time Temperature Precipitation Wind Pressure Humidity
    00:00 +14°C° 0 mm 2 mps 740 mmHg 89%
    01:00 +13°C° 0 mm 2 mps 740 mmHg 90%
    02:00 +13°C° 0 mm 2 mps 740 mmHg 90%
    03:00 +13°C° 0 mm 2 mps 740 mmHg 91%
    04:00 +13°C° 0 mm 2 mps 740 mmHg 91%
    05:00 +12°C° 0 mm 2 mps 740 mmHg 91%
    06:00 +11°C° 0 mm 3 mps 740 mmHg 92%
    07:00 +13°C° 0 mm 3 mps 740 mmHg 87%
    08:00 +14°C° 0 mm 3 mps 740 mmHg 82%
    09:00 +15°C° 0 mm 4 mps 740 mmHg 77%
    10:00 +18°C° 0 mm 4 mps 740 mmHg 74%
    11:00 +20°C° 0 mm 4 mps 739 mmHg 70%
    12:00 +21°C° 0 mm 5 mps 739 mmHg 66%
    13:00 +22°C° 0 mm 5 mps 739 mmHg 65%
    14:00 +23°C° 0 mm 5 mps 738 mmHg 64%
    15:00 +23°C° 0 mm 6 mps 737 mmHg 63%
    16:00 +22°C° 0 mm 5 mps 737 mmHg 67%
    17:00 +21°C° 0 mm 5 mps 737 mmHg 72%
    18:00 +20°C° 0 mm 4 mps 737 mmHg 76%
    19:00 +19°C° 0 mm 4 mps 737 mmHg 78%
    20:00 +19°C° 0 mm 5 mps 737 mmHg 79%
    21:00 +17°C° 0 mm 5 mps 737 mmHg 81%
    22:00 +17°C° 0.1 mm 5 mps 737 mmHg 82%
    23:00 +17°C° 0.1 mm 5 mps 737 mmHg 84%

    24 September, Monday

    Time Temperature Precipitation Wind Pressure Humidity
    00:00 +16°C° 0.1 mm 5 mps 736 mmHg 85%
    01:00 +16°C° 0.1 mm 5 mps 736 mmHg 85%
    02:00 +16°C° 0.1 mm 5 mps 736 mmHg 86%
    03:00 +16°C° 0.1 mm 6 mps 735 mmHg 86%
    04:00 +16°C° 0.9 mm 5 mps 735 mmHg 88%
    05:00 +15°C° 0.9 mm 4 mps 735 mmHg 89%
    06:00 +15°C° 0.9 mm 4 mps 736 mmHg 91%
    07:00 +16°C° 0.2 mm 5 mps 735 mmHg 89%
    08:00 +17°C° 0.2 mm 6 mps 735 mmHg 87%
    09:00 +17°C° 0.2 mm 7 mps 735 mmHg 85%
    10:00 +18°C° 0.5 mm 7 mps 734 mmHg 85%
    11:00 +20°C° 0.5 mm 6 mps 734 mmHg 85%
    12:00 +21°C° 0.5 mm 5 mps 734 mmHg 85%
    13:00 +20°C° 1.6 mm 5 mps 734 mmHg 86%
    14:00 +20°C° 1.6 mm 5 mps 734 mmHg 87%
    15:00 +19°C° 1.6 mm 5 mps 734 mmHg 89%
    16:00 +18°C° 0.3 mm 4 mps 734 mmHg 89%
    17:00 +17°C° 0.3 mm 4 mps 734 mmHg 89%
    18:00 +16°C° 0.3 mm 3 mps 734 mmHg 90%
    19:00 +16°C° 0 mm 2 mps 735 mmHg 90%
    20:00 +15°C° 0 mm 2 mps 735 mmHg 91%
    21:00 +14°C° 0 mm 2 mps 736 mmHg 92%
    22:00 +14°C° 0 mm 2 mps 736 mmHg 92%
    23:00 +13°C° 0 mm 2 mps 737 mmHg 92%
    Show more